Flag for Switzerland Weather past 2 weeks in Pully, Vaud, Switzerland

Now
78 °F

Warm.


Feels Like: 79 °F
Forecast: 61 / 89 °F
Wind: 5 mph from North

Location: Aigle

Current Time: Jun 30, 2015 at 1:11:47 PM

Latest Report: Jun 30, 2015 at 12:00 PM


Visibility: N/A

Pressure: 30.06 "Hg

Humidity: 57%

Dew point: 61 °F

Location of PullyLocation

Historic Weather in Pully — Graph

°F

Pully temperature yesterday

Maximum temperature yesterday: 81 °F (at 4:00 PM)
Minimum temperature yesterday: 56 °F (at 6:00 AM)
Average temperature yesterday: 70 °F

Past Weeks' High & Low Weather Summary

 TemperatureHumidityPressure
High81 °F (Jun 29, 4:00 PM)97% (Jun 16, 1:00 AM)30.22 "Hg (Jun 16, 1:00 AM)
Low47 °F (Jun 24, 7:00 AM)39% (Jun 29, 5:00 PM)29.77 "Hg (Jun 22, 10:00 PM)
Average65 °F70%30.07 "Hg
* Reported Jun 15 11:00 AM — Jun 30 11:00 AM, Pully, Weather by CustomWeather, © 2015

Note: Actual official high and low records may vary slightly from our data, if they occured in-between our weather recording intervals... More about our weather records

Advertising

Pully weather history for previous 24 hours

 ConditionsComfort  
Time TempWeatherWind HumidityBarometerVisibility
11:00 AM
Tue, Jun 30
76 °FSunny.5 mph50%30.08 "Hg25 mi
10:00 AM76 °FMild.2 mph47%30.09 "HgN/A
9:00 AM73 °FMild.No wind54%30.11 "HgN/A
8:00 AM69 °FSunny.No wind65%30.11 "Hg25 mi
7:00 AM57 °FCool.2 mph89%30.14 "HgN/A
6:00 AM60 °FCool.3 mph82%30.12 "HgN/A
5:00 AM59 °FClear.5 mph87%30.12 "Hg16 mi
4:00 AM60 °FCool.3 mph85%30.13 "HgN/A
3:00 AM60 °FCool.2 mph86%30.14 "HgN/A
2:00 AM64 °FMild.3 mph77%30.13 "HgN/A
1:00 AM63 °FMild.2 mph84%30.14 "HgN/A
12:00 AM67 °FMild.2 mph71%30.14 "HgN/A
10:00 PM
Mon, Jun 29
68 °FMild.2 mph78%30.11 "HgN/A
9:00 PM74 °FMild.3 mph62%30.09 "HgN/A
8:00 PM79 °FPartly sunny.3 mph45%30.06 "Hg25 mi
7:00 PM81 °FWarm.7 mph43%30.06 "HgN/A
6:00 PM80 °FWarm.7 mph43%30.06 "HgN/A
5:00 PM81 °FPleasantly warm.10 mph39%30.07 "HgN/A
4:00 PM81 °FWarm.10 mph41%30.08 "HgN/A
3:00 PM80 °FWarm.9 mph44%30.08 "HgN/A
2:00 PM79 °FWarm.8 mph45%30.10 "HgN/A
1:00 PM77 °FWarm.8 mph51%30.11 "HgN/A
Weather by CustomWeather, © 2015

See weather overviewHow to use our weather pages